Weather Roundup
Issued by NWS Corpus Christi, TX

Home | Current Version | Previous Version | Text Only | Print | Product List | Glossary On
Versions: 1 2 3 4 5 6 7 8 9 10 11 12 13 14 15 16 17 18 19 20 21 22 23 24 25 26 27 28 29 30 31 32 33 34 35 36 37 38 39 40 41 42 43 44 45 46 47 48 49 50
000
ASUS44 KCRP 282210
HRRCRP

SOUTH TEXAS REGIONAL WEATHER ROUNDUP
NATIONAL WEATHER SERVICE CORPUS CHRISTI TX
400 PM CST WED JAN 28 2015


TXZ229>244-282300-
...CORPUS CHRISTI AREA OBSERVATIONS...

CITY           SKY/WX    TMP DP  RH WIND       PRES   REMARKS
CORPUS CHRISTI PTSUNNY   75  54  47 SE18      30.11F
NAS CORPUS CHR PTSUNNY   71  62  73 SE18      30.13F
ROCKPORT       MOSUNNY   68  61  78 S12G17    30.13F
KINGSVILLE NAS PTSUNNY   79  60  52 SE16      30.10F
ALICE          MOSUNNY   81  47  30 SE13G21   30.08F
FALFURRIAS     MOSUNNY   81  44  27 SE17      30.09F
$$

...VICTORIA AREA OBSERVATIONS...

CITY           SKY/WX    TMP DP  RH WIND       PRES   REMARKS
VICTORIA       MOSUNNY   77  49  37 SE20      30.11F
BEEVILLE       FAIR      78  46  32 SE14      30.09F
PLEASANTON     SUNNY     82  34  18 SE9       30.08F
SAN ANTONIO    PTSUNNY   79  38  22 SE17      30.08F
$$

...LAREDO AREA OBSERVATIONS...

CITY           SKY/WX    TMP DP  RH WIND       PRES   REMARKS
LAREDO         SUNNY     82  37  20 SE13      30.09S
COTULLA        SUNNY     86  35  16 S9        30.06F
DEL RIO        SUNNY     81  34  18 SE16      30.03F
MCALLEN        MOSUNNY   80  51  36 SE15G25   30.10F
HEBBRONVILLE     N/A    N/A N/A N/A MISG        N/A
$$

...OTHER TEXAS OBSERVATIONS...

CITY           SKY/WX    TMP DP  RH WIND       PRES   REMARKS
BROWNSVILLE    PTSUNNY   74  59  59 S17       30.13F
HOUSTON        MOSUNNY   76  48  37 SE16      30.10F
COL. STATION   SUNNY     79  41  25 S12       30.09S
AUSTIN         MOSUNNY   79  41  25 S13       30.07F
WACO           MOSUNNY   79  44  28 S17       30.02F
FORT WORTH     CLOUDY    77  43  29 S15       29.98F
WICHITA FALLS  PTSUNNY   80  45  28 SW18      29.91F
LUBBOCK        MOSUNNY   76  29  17 W22G31    30.01S
EL PASO        MOSUNNY   72  37  28 VRB3      30.11F
$$

...MARINE OBSERVATIONS...

STATION/POSITION TIME  SKY/WX   TEMP    WIND        PRES    VSBY  WAVE   SWELL
                                AIR SEA DIR/SP/G                  HT/PER HT/PER
                 (UTC)          (F)     (DEG/KT/KT) (MB)    (MI)  (FT/S) (FT/S)
PORT ARANSAS     2200            62 61  120/  8/  9 1021.2F
BUOY 90 E PORT A 2200            69 70  170/  6/  6 1022.0F         1/ 4
BUOY 45 SE BAFFI 2200            69 70  170/ 12/ 12 1020.7F         1
BUOY 200 E PT IS 2200            71 75  120/  2/  4 1022.2R         1/ 4
BUOY 15 E GALVES 2200            60 58  140/  8/ 10 1021.4F         1
$$


USA.gov is the U.S. government's official web portal to all federal, state and local government web resources and services.